Temp_Advection
nan nan nan nan nan nan nan nan nan nan nan nan nan nan nan nan nan nan nan nan nan nan
nan 0 0 0 -2 -2 -1 -1 -1 -2 -3 -2 -2 -2 -2 -3 -2 -1 -2 -2 -0 nan
nan -1 -0 0 0 -1 -3 -2 -1 0 -1 -3 -3 -2 -2 -3 -2 -2 -1 -1 -2 nan
nan -1 -1 -1 -0 0 -0 -2 -3 -0 1 -1 -3 -3 -2 -3 -2 -2 -3 -2 -2 nan
nan 0 -1 -1 -1 -1 -0 0 -1 -3 -1 1 -0 -1 -2 -2 -2 -3 -2 -3 -3 nan
nan 1 0 -1 -1 -1 -1 -1 0 -0 -2 -1 -0 -1 -1 -1 -1 -2 -2 -2 -4 nan
nan 1 1 0 -0 -1 -1 -1 -1 -0 -1 -1 -1 -0 -1 -1 -1 -1 -2 -4 -2 nan
nan 0 1 1 -0 -0 -0 -1 -1 -1 -1 -1 -1 -1 -0 -0 -1 -1 -2 -4 -4 nan
nan -0 0 1 1 -0 -0 -0 -1 -1 -1 -1 -1 -1 -1 -1 -1 -0 -0 -1 -3 nan
nan -0 -0 0 1 1 0 -0 -0 -1 -1 -1 -1 -1 -1 -1 -1 -0 -1 -0 -1 nan
nan -0 -0 -0 -0 1 1 0 -0 -1 -1 -1 -1 -1 -1 -1 -1 -1 -1 -0 -0 nan
nan -1 -0 -0 -0 -0 0 1 -1 -1 -1 -1 -1 -1 -1 -1 -1 -1 -1 -1 -0 nan
nan -0 -0 -0 -0 -0 0 0 0 -1 -0 -1 -1 -1 -1 -1 -1 -1 -1 -1 -1 nan
nan nan nan nan nan nan nan nan nan nan nan nan nan nan nan nan nan nan nan nan nan nan
Wind_Speed
28 26 27 26 28 29 29 30 31 31 30 31 32 33 35 34 36 36 35 34 33 31
28 28 28 28 28 27 28 29 30 31 32 32 32 33 34 37 36 36 38 38 37 38
30 28 28 28 28 27 28 29 30 31 30 31 32 32 33 35 37 38 39 39 39 39
30 30 28 28 28 28 28 28 30 31 31 30 30 31 32 33 35 38 39 39 42 43
31 29 27 27 29 30 31 30 29 29 31 31 31 30 31 32 31 35 37 39 39 44
32 30 28 29 30 31 31 31 31 29 29 30 31 31 32 31 32 34 37 38 39 42
33 32 31 30 30 30 29 31 31 31 31 30 31 32 32 32 33 34 36 40 45 43
33 32 32 31 30 30 30 30 30 32 31 31 31 32 32 32 34 37 39 40 45 48
33 33 33 33 32 31 30 30 30 31 31 33 32 32 33 34 38 41 43 45 43 46
34 35 33 34 33 31 31 30 31 31 31 33 33 32 33 35 38 42 44 47 49 47
35 34 34 35 34 34 33 32 32 33 31 33 33 32 33 35 38 41 46 48 50 50
35 35 35 35 35 35 36 34 33 30 31 32 34 32 34 35 39 43 46 48 49 52
35 34 34 34 36 37 35 34 30 31 29 30 34 32 32 35 37 43 45 46 50 50
35 33 31 34 37 38 36 34 34 32 32 33 32 34 34 35 37 43 46 46 48 50
Wind_Direction
323 319 316 313 312 308 306 304 303 299 292 286 281 276 275 269 265 263 261 255 247 242
321 318 314 310 308 305 302 301 299 297 294 289 285 280 275 273 267 265 263 259 254 249
321 318 313 309 306 301 301 299 296 295 292 290 286 282 277 272 270 267 263 262 259 254
321 318 314 309 306 304 300 298 296 292 290 287 286 282 279 275 271 269 266 261 260 255
322 317 312 309 308 306 302 299 294 291 287 287 285 283 280 278 272 268 266 263 259 256
323 318 313 310 309 307 304 300 296 291 286 286 286 284 281 277 273 270 266 265 261 258
325 320 317 313 310 306 303 300 296 292 287 285 285 282 280 277 274 271 268 264 262 260
326 324 321 317 311 308 303 299 295 292 286 285 285 283 282 279 278 277 274 267 262 261
329 328 326 322 316 311 306 301 297 291 287 285 284 283 281 278 276 274 273 271 268 262
331 329 328 327 322 315 310 306 301 295 291 285 283 284 283 281 277 275 272 269 267 264
331 329 330 328 327 324 320 314 308 298 292 287 285 285 285 283 280 277 275 271 268 262
334 331 331 330 330 329 327 316 305 301 295 290 289 286 287 288 281 278 274 271 267 264
336 332 331 331 333 333 325 319 313 305 300 296 294 291 290 291 282 281 275 273 270 262
336 334 334 334 337 333 331 330 326 320 318 313 309 300 297 292 283 281 278 271 268 263
Height
1516 1512 1508 1504 1501 1496 1492 1488 1484 1481 1479 1476 1474 1472 1470 1469 1468 1468 1469 1470 1471 1470
1512 1507 1502 1498 1494 1490 1486 1482 1478 1474 1470 1468 1465 1463 1462 1459 1458 1458 1458 1460 1462 1464
1505 1501 1497 1492 1487 1483 1479 1475 1471 1467 1463 1459 1456 1455 1454 1450 1448 1448 1449 1450 1452 1453
1499 1494 1490 1486 1481 1476 1471 1467 1463 1459 1455 1452 1449 1447 1443 1440 1439 1438 1438 1440 1440 1442
1493 1488 1483 1479 1474 1469 1463 1458 1454 1450 1446 1442 1440 1437 1433 1430 1429 1428 1428 1429 1430 1430
1487 1482 1477 1471 1465 1460 1454 1449 1444 1441 1437 1433 1430 1426 1423 1421 1420 1419 1417 1417 1417 1419
1481 1475 1469 1463 1458 1452 1447 1441 1436 1431 1427 1424 1421 1417 1414 1412 1410 1409 1408 1407 1406 1407
1475 1469 1462 1456 1450 1445 1439 1433 1428 1422 1418 1415 1411 1408 1405 1403 1400 1398 1395 1394 1394 1394
1469 1462 1456 1449 1443 1436 1430 1425 1420 1414 1410 1405 1402 1399 1397 1396 1391 1389 1386 1382 1381 1380
1461 1455 1449 1442 1435 1429 1422 1416 1410 1405 1400 1395 1391 1389 1387 1385 1381 1377 1373 1371 1369 1368
1455 1448 1442 1435 1428 1421 1414 1407 1401 1396 1391 1385 1380 1379 1376 1374 1370 1365 1360 1357 1356 1355
1450 1442 1435 1428 1421 1413 1406 1399 1393 1387 1382 1376 1370 1368 1365 1362 1357 1351 1346 1342 1340 1340
1444 1437 1429 1422 1414 1406 1400 1391 1384 1378 1372 1367 1360 1357 1354 1350 1344 1337 1332 1328 1324 1323
1439 1431 1424 1416 1408 1400 1392 1383 1376 1369 1362 1357 1352 1345 1341 1337 1332 1324 1318 1313 1308 1305